Location: Kuppenheim
(48.8299°N, 8.2568°E)
Time: 10:05:30
(UTC+00:00)

Envisat - Pass Details

Date: 29 November 2022
Orbit: 763 x 765 km, 98.2° (Epoch: 28 January)

Event Time Altitude Azimuth Distance (km) Brightness Sun altitude
Rises 05:07:55 0° 4° (N) 3,246 6.2 -17.2°
Reaches altitude 10° 05:10:37 10° 351° (N) 2,315 5.3 -16.7°
Enters shadow 05:13:55 23° 311° (NW) 1,600 4.1 -16.2°
